Orbital elements of NILESAT 102
| Launched | 16 August 2000 |
| Flight ended | – |
| Launch site | Europe's Spaceport, Kourou, French Guiana |
| Owner | Egypt |
| NORAD ID | 26470 |
| Date fetched |
Epoch osculation |
Inc. [°] |
Ecc. | RA asc node [hr] |
Arg Peri. [°] |
Mean anom [°] |
Mean motion [rev/day] |
Abs. mag |
| Date fetched |
Epoch osculation |
Inc. [°] |
Ecc. | RA asc node [hr] |
Arg Peri. [°] |
Mean anom [°] |
Mean motion [rev/day] |
Abs. mag |
| 2026 May 03 17:57 | 2026 Apr 29 13:27:21 | 9.2508 | 0.00036 | 3.9968 | 21.2850 | 341.7765 | 0.98045 | – |
| 2026 May 02 17:57 | 2026 Apr 29 13:27:21 | 9.2508 | 0.00036 | 3.9968 | 21.2850 | 341.7765 | 0.98045 | – |
| 2026 May 01 17:56 | 2026 Apr 29 13:27:21 | 9.2508 | 0.00036 | 3.9968 | 21.2850 | 341.7765 | 0.98045 | – |
| 2026 Apr 30 17:56 | 2026 Apr 29 13:27:21 | 9.2508 | 0.00036 | 3.9968 | 21.2850 | 341.7765 | 0.98045 | – |
| 2026 Apr 29 17:57 | 2026 Apr 24 12:09:01 | 9.2388 | 0.00031 | 4.0001 | 17.7063 | 341.7765 | 0.98045 | – |
| 2026 Apr 28 17:56 | 2026 Apr 24 12:09:01 | 9.2388 | 0.00031 | 4.0001 | 17.7063 | 341.7765 | 0.98045 | – |
| 2026 Apr 27 17:58 | 2026 Apr 24 12:09:01 | 9.2388 | 0.00031 | 4.0001 | 17.7063 | 341.7765 | 0.98045 | – |
| 2026 Apr 26 17:58 | 2026 Apr 24 12:09:01 | 9.2388 | 0.00031 | 4.0001 | 17.7063 | 341.7765 | 0.98045 | – |
| 2026 Apr 25 17:58 | 2026 Apr 24 12:09:01 | 9.2388 | 0.00031 | 4.0001 | 17.7063 | 341.7765 | 0.98045 | – |
| 2026 Apr 24 17:59 | 2026 Apr 24 12:09:01 | 9.2388 | 0.00031 | 4.0001 | 17.7063 | 341.7765 | 0.98045 | – |
| 2026 Apr 23 17:57 | 2026 Apr 19 09:08:17 | 9.2251 | 0.00027 | 4.0035 | 15.6852 | 341.7765 | 0.98045 | – |
| 2026 Apr 22 17:57 | 2026 Apr 19 09:08:17 | 9.2251 | 0.00027 | 4.0035 | 15.6852 | 341.7765 | 0.98045 | – |
| 2026 Apr 21 17:57 | 2026 Apr 19 09:08:17 | 9.2251 | 0.00027 | 4.0035 | 15.6852 | 341.7765 | 0.98045 | – |
| 2026 Apr 20 17:57 | 2026 Apr 19 09:08:17 | 9.2251 | 0.00027 | 4.0035 | 15.6852 | 341.7765 | 0.98045 | – |
| 2026 Apr 19 17:58 | 2026 Apr 19 09:08:17 | 9.2251 | 0.00027 | 4.0035 | 15.6852 | 341.7765 | 0.98045 | – |
| 2026 Apr 18 17:56 | 2026 Apr 13 04:29:50 | 9.2088 | 0.00028 | 4.0077 | 11.3210 | 341.7765 | 0.98045 | – |
| 2026 Apr 16 17:57 | 2026 Apr 13 04:29:50 | 9.2088 | 0.00028 | 4.0077 | 11.3210 | 341.7765 | 0.98045 | – |
| 2026 Apr 14 17:57 | 2026 Apr 13 04:29:50 | 9.2088 | 0.00028 | 4.0077 | 11.3210 | 341.7765 | 0.98045 | – |
| 2026 Apr 13 17:57 | 2026 Apr 13 04:29:50 | 9.2088 | 0.00028 | 4.0077 | 11.3210 | 341.7765 | 0.98045 | – |
| 2026 Apr 12 17:57 | 2026 Apr 08 03:11:17 | 9.1970 | 0.00028 | 4.0112 | 5.2596 | 341.7765 | 0.98045 | – |
| 2026 Apr 11 17:57 | 2026 Apr 08 03:11:17 | 9.1970 | 0.00028 | 4.0112 | 5.2596 | 341.7765 | 0.98045 | – |
| 2026 Apr 10 17:58 | 2026 Apr 08 03:11:17 | 9.1970 | 0.00028 | 4.0112 | 5.2596 | 341.7765 | 0.98045 | – |
| 2026 Apr 09 18:01 | 2026 Apr 08 03:11:17 | 9.1970 | 0.00028 | 4.0112 | 5.2596 | 341.7765 | 0.98045 | – |
| 2026 Apr 08 17:57 | 2026 Apr 08 03:11:17 | 9.1970 | 0.00028 | 4.0112 | 5.2596 | 341.7765 | 0.98045 | – |
| 2026 Apr 07 17:57 | 2026 Apr 02 01:13:38 | 9.1833 | 0.00023 | 4.0155 | 354.8502 | 341.7765 | 0.98045 | – |
| 2026 Apr 06 17:57 | 2026 Apr 02 01:13:38 | 9.1833 | 0.00023 | 4.0155 | 354.8502 | 341.7765 | 0.98045 | – |